Orbital Elements at Epoch 2459000.5 (2020-May-31.0) TDB
Reference: JPL 23 (heliocentric ecliptic J2000)
Element | Value | Uncertainty (1-sigma) | Units |
e | .07069899288900182 | 3.9121e-08 | |
a | 2.52301328426575 | 1.1398e-08 | au |
q | 2.344638786022589 | 9.8122e-08 | au |
i | 3.706969567348414 | 4.1194e-06 | deg |
node | 32.18986986183072 | 6.5105e-05 | deg |
peri | 210.4789155906757 | 7.7021e-05 | deg |
M | 24.47923425492343 | 4.3747e-05 | deg |
tp | 2458900.965632685280 (2020-Feb-21.46563269) | 0.00017796 | TDB |
period | 1463.786483684325 4.01 | 9.9192e-06 2.716e-08 | d yr |
n | .2459375079717134 | 1.6666e-09 | deg/d |
Q | 2.701387782508911 | 1.2204e-08 | au |
|
| | Orbit Determination Parameters
Additional Information
|